Total_Precipitation_Accumulation
1.59 1.63 1.66 1.72 1.85 2.02 2.19 2.28 2.20 2.24 2.30 2.27 2.11 2.04 2.01 1.94 1.96 2.03 2.00 2.03 2.09 2.08 2.08 2.03 1.88 1.77 1.85 1.89 1.93 1.99 2.04 2.17 2.12 1.57 1.32 1.29 1.34 1.31 1.33 1.24 1.15 1.13 1.09
1.63 1.63 1.66 1.67 1.69 1.79 1.89 2.08 2.12 2.18 2.18 2.23 2.17 2.04 1.95 1.87 1.83 1.86 1.84 1.80 1.81 1.83 1.84 1.90 1.85 1.74 1.73 1.76 1.83 1.80 1.74 1.73 1.83 1.66 1.34 1.24 1.21 1.13 1.16 1.18 1.12 1.08 1.01
1.62 1.67 1.66 1.62 1.58 1.60 1.69 1.83 1.91 1.98 2.01 2.04 2.13 2.06 1.93 1.85 1.76 1.72 1.70 1.68 1.65 1.61 1.63 1.71 1.75 1.78 1.76 1.73 1.72 1.69 1.64 1.62 1.68 1.72 1.44 1.24 1.19 1.12 1.13 1.13 1.09 1.06 0.99
1.57 1.67 1.70 1.66 1.61 1.55 1.62 1.71 1.78 1.82 1.88 1.87 1.92 2.01 2.02 1.96 1.86 1.76 1.70 1.66 1.64 1.58 1.55 1.62 1.64 1.64 1.59 1.55 1.59 1.55 1.57 1.63 1.63 1.70 1.61 1.42 1.30 1.20 1.22 1.25 1.24 1.11 1.04
1.46 1.62 1.68 1.72 1.79 1.80 1.72 1.69 1.71 1.73 1.80 1.81 1.81 1.89 1.93 1.97 1.94 1.85 1.78 1.73 1.71 1.69 1.61 1.57 1.59 1.65 1.58 1.53 1.53 1.54 1.57 1.68 1.74 1.79 1.68 1.49 1.36 1.30 1.24 1.15 1.21 1.19 1.14
1.29 1.43 1.52 1.62 1.75 1.90 1.92 1.86 1.80 1.74 1.76 1.83 1.82 1.86 1.88 1.89 2.11 2.09 1.90 1.82 1.77 1.67 1.57 1.46 1.46 1.57 1.57 1.58 1.57 1.55 1.63 1.77 1.86 1.88 1.74 1.51 1.23 1.14 1.19 1.33 1.46 1.62 1.57
1.16 1.21 1.32 1.50 1.59 1.71 1.91 2.01 1.94 1.88 1.91 1.93 1.96 1.99 1.97 2.04 2.15 1.99 1.92 1.76 1.70 1.58 1.45 1.36 1.32 1.31 1.41 1.33 1.40 1.48 1.49 1.60 1.69 1.70 1.63 1.32 1.15 1.10 1.35 1.59 1.63 1.65 1.48
1.15 1.21 1.33 1.42 1.50 1.65 1.83 1.99 2.07 2.05 2.10 2.09 2.07 2.07 2.05 2.05 2.09 1.95 1.92 1.72 1.61 1.47 1.35 1.25 1.22 1.20 1.24 1.35 1.44 1.52 1.41 1.32 1.29 1.23 1.21 1.15 1.13 1.22 1.49 1.79 1.95 2.01 1.75
1.10 1.17 1.25 1.37 1.46 1.57 1.74 1.90 2.00 2.05 2.12 2.14 2.03 1.94 1.87 1.86 1.91 1.78 1.78 1.68 1.67 1.53 1.39 1.31 1.26 1.19 1.32 1.54 1.63 1.64 1.45 1.26 1.23 1.26 1.31 1.32 1.40 1.48 1.60 1.92 2.20 2.38 2.14
1.11 1.14 1.16 1.27 1.39 1.48 1.60 1.75 1.89 1.97 1.99 1.95 1.87 1.78 1.69 1.65 1.75 1.66 1.67 1.67 1.69 1.56 1.45 1.39 1.46 1.38 1.48 1.62 1.59 1.61 1.51 1.27 1.18 1.17 1.20 1.23 1.17 1.20 1.43 1.60 2.05 2.55 2.28
1.12 1.15 1.16 1.21 1.34 1.42 1.43 1.49 1.61 1.69 1.70 1.68 1.59 1.58 1.56 1.56 1.61 1.54 1.54 1.57 1.62 1.61 1.55 1.44 1.40 1.60 1.67 1.70 1.60 1.41 1.40 1.45 1.34 1.26 1.23 1.22 1.20 1.18 1.19 1.22 1.51 2.25 2.63
1.11 1.14 1.19 1.23 1.27 1.32 1.32 1.32 1.34 1.39 1.47 1.50 1.43 1.41 1.46 1.50 1.53 1.55 1.58 1.61 1.65 1.59 1.49 1.34 1.38 1.64 1.65 1.61 1.49 1.50 1.61 1.55 1.37 1.41 1.41 1.36 1.29 1.24 1.22 1.24 1.29 1.48 1.83
1.14 1.16 1.18 1.19 1.23 1.29 1.31 1.28 1.30 1.34 1.40 1.47 1.38 1.34 1.34 1.33 1.41 1.57 1.58 1.63 1.66 1.54 1.46 1.51 1.55 1.58 1.54 1.49 1.55 1.56 1.51 1.41 1.48 1.59 1.49 1.34 1.25 1.25 1.28 1.36 1.39 1.40 1.49
1.12 1.15 1.16 1.14 1.17 1.22 1.27 1.29 1.33 1.41 1.40 1.39 1.33 1.28 1.25 1.21 1.18 1.30 1.46 1.53 1.59 1.56 1.56 1.60 1.56 1.51 1.50 1.51 1.59 1.56 1.44 1.45 1.61 1.64 1.50 1.38 1.35 1.41 1.43 1.48 1.65 1.69 1.81
1.04 1.07 1.09 1.11 1.16 1.24 1.28 1.34 1.40 1.43 1.50 1.51 1.38 1.27 1.27 1.27 1.25 1.39 1.49 1.49 1.56 1.64 1.65 1.55 1.48 1.46 1.48 1.46 1.41 1.42 1.45 1.55 1.63 1.56 1.57 1.57 1.57 1.65 1.70 1.74 1.90 2.00 2.04
1.02 1.02 1.06 1.09 1.15 1.22 1.27 1.35 1.45 1.47 1.47 1.48 1.46 1.37 1.29 1.32 1.38 1.42 1.45 1.53 1.64 1.71 1.66 1.57 1.48 1.40 1.39 1.39 1.38 1.37 1.40 1.47 1.58 1.70 1.75 1.75 1.79 1.87 1.95 1.97 2.10 2.22 2.10
1.00 1.04 1.07 1.09 1.15 1.20 1.19 1.21 1.32 1.36 1.35 1.37 1.40 1.38 1.35 1.35 1.35 1.39 1.46 1.52 1.52 1.54 1.48 1.43 1.39 1.35 1.32 1.31 1.35 1.40 1.42 1.42 1.57 1.81 1.94 1.99 2.04 2.09 2.15 2.20 2.21 2.20 2.02
0.92 1.00 1.01 1.06 1.13 1.16 1.19 1.18 1.16 1.19 1.24 1.27 1.31 1.32 1.32 1.33 1.32 1.35 1.45 1.48 1.48 1.44 1.35 1.32 1.30 1.29 1.32 1.36 1.41 1.50 1.55 1.56 1.68 1.85 1.96 2.03 2.14 2.28 2.32 2.23 2.12 2.05 1.95
0.82 0.89 0.93 0.97 1.03 1.10 1.13 1.17 1.16 1.13 1.13 1.13 1.14 1.23 1.31 1.32 1.32 1.37 1.41 1.37 1.39 1.37 1.30 1.28 1.26 1.30 1.38 1.44 1.48 1.56 1.68 1.80 1.88 2.05 2.11 2.11 2.18 2.39 2.38 2.15 1.99 1.91 1.84
0.78 0.86 0.88 0.90 0.94 1.00 1.04 1.08 1.12 1.09 1.06 1.04 1.07 1.15 1.21 1.26 1.26 1.27 1.31 1.34 1.37 1.38 1.35 1.35 1.33 1.35 1.44 1.51 1.56 1.66 1.80 1.86 1.95 2.08 2.13 2.14 2.19 2.31 2.27 2.02 1.84 1.82 1.71
0.73 0.79 0.83 0.83 0.88 0.95 1.00 1.05 1.10 1.10 1.07 1.02 1.06 1.18 1.34 1.35 1.29 1.23 1.28 1.31 1.35 1.40 1.43 1.46 1.47 1.47 1.52 1.59 1.67 1.73 1.84 1.90 1.97 2.12 2.16 2.10 2.09 2.06 1.88 1.80 1.75 1.73 1.74
0.67 0.71 0.73 0.78 0.82 0.90 0.98 1.02 1.05 1.06 1.05 1.02 1.03 1.12 1.23 1.16 1.12 1.14 1.20 1.23 1.23 1.28 1.36 1.48 1.53 1.52 1.65 1.86 2.04 2.13 2.03 1.95 1.96 2.12 2.17 2.02 1.93 1.85 1.80 1.83 1.79 1.77 1.77
0.62 0.64 0.67 0.72 0.77 0.87 0.92 0.91 0.95 1.00 1.02 1.01 1.00 1.02 1.05 1.07 1.06 1.07 1.10 1.12 1.13 1.15 1.19 1.31 1.43 1.42 1.48 1.74 2.05 2.44 2.56 2.31 2.17 2.27 2.37 2.19 1.95 1.86 1.90 1.92 1.82 1.79 1.73
0.57 0.61 0.65 0.68 0.73 0.77 0.83 0.87 0.91 0.96 0.98 0.98 0.95 0.95 0.98 1.03 1.03 1.01 1.03 1.05 1.07 1.07 1.09 1.21 1.32 1.36 1.39 1.63 1.89 2.08 2.27 2.43 2.62 2.63 2.55 2.53 2.24 1.97 1.94 1.92 1.78 1.68 1.67
0.58 0.60 0.63 0.67 0.70 0.74 0.77 0.81 0.85 0.88 0.92 0.93 0.93 0.93 0.93 0.94 0.95 0.96 0.97 0.99 1.00 1.00 0.97 1.05 1.22 1.34 1.42 1.55 1.75 1.91 2.05 2.23 2.40 2.48 2.45 2.38 2.18 1.95 1.90 1.88 1.76 1.67 1.64
0.56 0.59 0.61 0.64 0.67 0.69 0.73 0.76 0.79 0.82 0.87 0.90 0.91 0.92 0.92 0.92 0.93 0.94 0.96 0.98 1.00 0.97 0.93 0.95 1.03 1.18 1.32 1.46 1.57 1.74 1.89 1.86 1.74 1.73 1.98 2.15 2.06 1.86 1.83 1.90 1.78 1.73 1.70